Orbital Elements at Epoch 2459200.5 (2020-Dec-17.0) TDB
Reference: JPL 24 (heliocentric ecliptic J2000)
Element | Value | Uncertainty (1-sigma) | Units |
e | .1037804708191594 | 4.1295e-08 | |
a | 2.286163248989684 | 7.9294e-09 | au |
q | 2.048904150640075 | 9.3096e-08 | au |
i | 6.239438638252072 | 4.1678e-06 | deg |
node | 299.5785071883228 | 4.001e-05 | deg |
peri | 98.40279708005284 | 4.609e-05 | deg |
M | 25.00066862452725 | 2.0825e-05 | deg |
tp | 2459112.818411673255 (2020-Sep-20.31841167) | 7.3086e-05 | TDB |
period | 1262.581104197367 3.46 | 6.5687e-06 1.798e-08 | d yr |
n | .2851301978171572 | 1.4834e-09 | deg/d |
Q | 2.523422347339293 | 8.7523e-09 | au |
|
| | Orbit Determination Parameters
Additional Information
|